Flag for China Weather past 2 weeks in Taiyuan, Shanxi, China

Now
14 °F

Clear.


Feels Like: 14 °F
Forecast: 18 / 49 °F
Wind: 1 mph from Southeast

Location: Taiyuan Airport

Current Time: Dec 29, 2014 at 7:09:30 AM

Latest Report: Dec 29, 2014 at 6:30 AM


Visibility: 4 mi

Pressure: 30.01 "Hg

Humidity: 62%

Dew point: 3 °F

Location of TaiyuanLocation

Historic Weather in Taiyuan — Graph

°F

Taiyuan temperature yesterday

Maximum temperature yesterday: 43 °F (at 2:30 PM)
Minimum temperature yesterday: 14 °F (at 4:00 AM)
Average temperature yesterday: 27 °F

Past Weeks' High & Low Weather Summary

 TemperatureHumidityPressure
High43 °F (Dec 28, 2:30 PM)80% (Dec 27, 9:30 AM)30.57 "Hg (Dec 27, 9:30 AM)
Low9 °F (Dec 14, 7:30 AM)12% (Dec 19, 4:30 PM)30.01 "Hg (Dec 29, 4:00 AM)
Average24 °F36%30.31 "Hg
* Reported Dec 14 6:00 AM — Dec 29 6:00 AM, Taiyuan, Weather by CustomWeather, © 2014

Note: Actual official high and low records may vary slightly from our data, if they occured in-between our weather recording intervals... More about our weather records

Advertising

Taiyuan weather history for previous 24 hours

 ConditionsComfort  
Time TempWeatherWind HumidityBarometerVisibility
6:00 AM
Dec 29
16 °FClear.1 mph57%30.01 "Hg4 mi
5:30 AM16 °FClear.No wind62%30.01 "Hg4 mi
5:00 AM19 °FClear.1 mph58%30.01 "Hg4 mi
4:30 AM19 °FClear.3 mph53%30.01 "Hg4 mi
4:00 AM19 °FClear.3 mph53%30.01 "Hg4 mi
3:30 AM18 °FClear.1 mph58%30.04 "Hg4 mi
3:00 AM19 °FClear.1 mph53%30.04 "Hg5 mi
2:30 AM19 °FClear.1 mph58%30.04 "Hg5 mi
2:00 AM19 °FClear.3 mph58%30.04 "Hg4 mi
1:30 AM18 °FClear.3 mph58%30.04 "Hg4 mi
1:00 AM19 °FClear.6 mph53%30.04 "Hg4 mi
12:30 AM19 °FClear.1 mph53%30.07 "Hg4 mi
12:00 AM19 °FClear.1 mph49%30.07 "Hg4 mi
11:30 PM
Dec 28
23 °FClear.3 mph46%30.07 "Hg4 mi
11:00 PM25 °FClear.1 mph42%30.09 "Hg5 mi
10:30 PM27 °FClear.3 mph39%30.09 "Hg5 mi
10:00 PM25 °FClear.1 mph46%30.09 "Hg5 mi
9:30 PM27 °FClear.1 mph39%30.09 "Hg5 mi
9:00 PM27 °FClear.3 mph39%30.09 "Hg5 mi
8:30 PM28 °FClear.3 mph37%30.09 "Hg5 mi
8:00 PM30 °FClear.3 mph31%30.09 "Hg5 mi
7:30 PM32 °FClear.1 mph32%30.12 "Hg5 mi
7:00 PM32 °FClear.1 mph32%30.09 "Hg10 mi
6:30 PM34 °FClear.6 mph23%30.09 "Hg10 mi
6:00 PM36 °FClear.1 mph21%30.09 "Hg10 mi
5:30 PM37 °FClear.1 mph22%30.09 "Hg10 mi
5:00 PM39 °FSunny.3 mph18%30.09 "Hg10 mi
4:30 PM41 °FSunny.6 mph19%30.07 "Hg10 mi
4:00 PM43 °FPassing clouds.6 mph16%30.07 "HgN/A
3:30 PM43 °FSunny.15 mph15%30.07 "Hg10 mi
3:00 PM43 °FSunny.13 mph16%30.07 "Hg10 mi
2:30 PM43 °FPassing clouds.13 mph16%30.09 "HgN/A
2:00 PM41 °FPassing clouds.13 mph16%30.09 "HgN/A
1:30 PM41 °FSunny.13 mph17%30.09 "Hg10 mi
1:00 PM39 °FPassing clouds.13 mph20%30.12 "HgN/A
12:30 PM39 °FSunny.15 mph20%30.12 "Hg10 mi
11:30 AM37 °FPassing clouds.10 mph23%30.15 "HgN/A
11:00 AM34 °FHaze.3 mph32%30.18 "Hg2 mi
10:30 AM30 °FHaze.1 mph43%30.18 "Hg1 mi
10:00 AM27 °FHaze.1 mph54%30.18 "Hg1 mi
9:30 AM25 °FHaze.1 mph59%30.21 "Hg2 mi
9:00 AM21 °FHaze.1 mph63%30.18 "Hg2 mi
8:30 AM19 °FHaze.1 mph63%30.18 "Hg2 mi
8:00 AM19 °FHaze.3 mph63%30.18 "Hg2 mi
7:30 AM16 °FHaze.3 mph62%30.18 "Hg2 mi
7:00 AM16 °FHaze.3 mph67%30.18 "Hg2 mi
Weather by CustomWeather, © 2014

See weather overviewHow to use our weather pages